| time (UTC) | temp C | wind direction | speed KPH | gust KPH | rain 1hr cm | rain 24hr cm | rain mn cm | humidity % | barometer mb |
| 20260507070603 | 15 | 289 | 9.7 | 19.3 | 0.00 | 0.00 | 0.00 | 57 | 1013.5 |
| 20260507070103 | 15 | 293 | 11.3 | 19.3 | 0.00 | 0.00 | 0.00 | 57 | 1013.5 |
| 20260507065103 | 15 | 315 | 8.0 | 19.3 | 0.00 | 0.00 | 0.00 | 56 | 1013.4 |
| 20260507064603 | 15 | 291 | 9.7 | 16.1 | 0.00 | 0.00 | 0.00 | 56 | 1013.5 |
| 20260507064103 | 16 | 289 | 9.7 | 19.3 | 0.00 | 0.00 | 0.00 | 55 | 1013.4 |
| 20260507063603 | 16 | 291 | 9.7 | 19.3 | 0.00 | 0.00 | 0.00 | 55 | 1013.3 |
| 20260507063103 | 16 | 298 | 9.7 | 22.5 | 0.00 | 0.00 | 0.00 | 54 | 1013.3 |
| 20260507062603 | 16 | 298 | 14.5 | 24.1 | 0.00 | 0.00 | 0.00 | 54 | 1013.3 |
| 20260507062103 | 16 | 288 | 14.5 | 22.5 | 0.00 | 0.00 | 0.00 | 54 | 1013.3 |
| 20260507061604 | 16 | 291 | 19.3 | 29.0 | 0.00 | 0.00 | 0.00 | 55 | 1013.3 |
| 20260507061103 | 16 | 286 | 20.9 | 32.2 | 0.00 | 0.00 | 0.00 | 54 | 1013.3 |
| 20260507060602 | 16 | 289 | 14.5 | 20.9 | 0.00 | 0.00 | 0.00 | 56 | 1013.2 |
| 20260507055103 | 15 | 291 | 9.7 | 16.1 | 0.00 | 0.00 | 0.00 | 57 | 1013.2 |
| 20260507054602 | 15 | 289 | 9.7 | 14.5 | 0.00 | 0.00 | 0.00 | 57 | 1013.2 |
| 20260507054103 | 16 | 286 | 6.4 | 9.7 | 0.00 | 0.00 | 0.00 | 57 | 1013.1 |
| 20260507053603 | 16 | 291 | 8.0 | 9.7 | 0.00 | 0.00 | 0.00 | 56 | 1013.2 |
| 20260507053103 | 16 | 288 | 8.0 | 9.7 | 0.00 | 0.00 | 0.00 | 55 | 1013.1 |
| 20260507052103 | 16 | 291 | 8.0 | 14.5 | 0.00 | 0.00 | 0.00 | 54 | 1013.0 |
| 20260507051603 | 16 | 292 | 9.7 | 16.1 | 0.00 | 0.00 | 0.00 | 55 | 1013.0 |
| 20260507051103 | 16 | 293 | 9.7 | 19.3 | 0.00 | 0.00 | 0.00 | 55 | 1013.7 |
| 20260507050602 | 16 | 293 | 6.4 | 12.9 | 0.00 | 0.00 | 0.00 | 55 | 1013.9 |
| 20260507050103 | 16 | 288 | 4.8 | 11.3 | 0.00 | 0.00 | 0.00 | 54 | 1013.9 |
| 20260507045602 | 16 | 292 | 6.4 | 11.3 | 0.00 | 0.00 | 0.00 | 53 | 1013.9 |
| 20260507045103 | 17 | 290 | 4.8 | 11.3 | 0.00 | 0.00 | 0.00 | 53 | 1013.7 |
| 20260507044603 | 17 | 294 | 3.2 | 11.3 | 0.00 | 0.00 | 0.00 | 53 | 1013.6 |
| 20260507043603 | 17 | 297 | 8.0 | 16.1 | 0.00 | 0.00 | 0.00 | 52 | 1013.6 |
| 20260507043103 | 17 | 295 | 11.3 | 19.3 | 0.00 | 0.00 | 0.00 | 53 | 1013.6 |
| 20260507042603 | 17 | 295 | 12.9 | 19.3 | 0.00 | 0.00 | 0.00 | 54 | 1013.6 |
| 20260507042103 | 16 | 293 | 9.7 | 16.1 | 0.00 | 0.00 | 0.00 | 54 | 1013.8 |
| 20260507041602 | 16 | 289 | 11.3 | 22.5 | 0.00 | 0.00 | 0.00 | 54 | 1013.9 |
| 20260507041103 | 16 | 295 | 9.7 | 16.1 | 0.00 | 0.00 | 0.00 | 56 | 1014.1 |
| 20260507040602 | 16 | 283 | 14.5 | 24.1 | 0.00 | 0.00 | 0.00 | 58 | 1014.3 |
| 20260507040103 | 15 | 274 | 8.0 | 9.7 | 0.00 | 0.00 | 0.00 | 62 | 1014.4 |
| 20260507035103 | 15 | 241 | 4.8 | 4.8 | 0.00 | 0.00 | 0.00 | 67 | 1014.4 |
| 20260507034603 | 15 | 242 | 3.2 | 4.8 | 0.00 | 0.00 | 0.00 | 66 | 1014.4 |
| 20260507033603 | 15 | 245 | 3.2 | 4.8 | 0.00 | 0.00 | 0.00 | 66 | 1014.3 |
| 20260507033103 | 15 | 261 | 3.2 | 4.8 | 0.00 | 0.00 | 0.00 | 67 | 1014.2 |
| 20260507032603 | 15 | 267 | 3.2 | 4.8 | 0.00 | 0.00 | 0.00 | 64 | 1014.2 |
| 20260507031603 | 16 | 271 | 3.2 | 8.0 | 0.00 | 0.00 | 0.00 | 62 | 1014.0 |
| 20260507031102 | 16 | 272 | 8.0 | 9.7 | 0.00 | 0.00 | 0.00 | 58 | 1014.1 |
| 20260507030603 | 16 | 278 | 8.0 | 8.0 | 0.00 | 0.00 | 0.00 | 58 | 1014.3 |
| 20260507025103 | 16 | 278 | 1.6 | 3.2 | 0.00 | 0.00 | 0.00 | 60 | 1014.2 |
| 20260507024604 | 16 | 278 | 3.2 | 4.8 | 0.00 | 0.00 | 0.00 | 61 | 1014.1 |
| 20260507023603 | 17 | 278 | 4.8 | 4.8 | 0.00 | 0.00 | 0.00 | 57 | 1014.2 |
| 20260507022602 | 17 | 278 | 3.2 | 4.8 | 0.00 | 0.00 | 0.00 | 59 | 1014.3 |
| 20260507022102 | 17 | 277 | 8.0 | 8.0 | 0.00 | 0.00 | 0.00 | 60 | 1014.4 |
| 20260507021603 | 17 | 277 | 4.8 | 9.7 | 0.00 | 0.00 | 0.00 | 61 | 1014.3 |
| 20260507021103 | 17 | 276 | 8.0 | 9.7 | 0.00 | 0.00 | 0.00 | 60 | 1014.5 |
| 20260507020603 | 17 | 277 | 8.0 | 11.3 | 0.00 | 0.00 | 0.00 | 60 | 1014.6 |
| 20260507015603 | 18 | 290 | 1.6 | 3.2 | 0.00 | 0.00 | 0.00 | 58 | 1014.6 |
| 20260507015104 | 18 | 291 | 1.6 | 4.8 | 0.00 | 0.00 | 0.00 | 58 | 1014.6 |
| 20260507014602 | 18 | 293 | 1.6 | 4.8 | 0.00 | 0.00 | 0.00 | 57 | 1014.6 |
| 20260507014103 | 18 | 320 | 3.2 | 8.0 | 0.00 | 0.00 | 0.00 | 55 | 1014.6 |
| 20260507013103 | 18 | 297 | 4.8 | 9.7 | 0.00 | 0.00 | 0.00 | 58 | 1014.4 |
| 20260507012603 | 18 | 287 | 3.2 | 4.8 | 0.00 | 0.00 | 0.00 | 57 | 1014.4 |
| 20260507012102 | 18 | 294 | 1.6 | 4.8 | 0.00 | 0.00 | 0.00 | 57 | 1014.4 |
| 20260507011102 | 19 | 296 | 6.4 | 12.9 | 0.00 | 0.00 | 0.00 | 55 | 1015.0 |
| 20260507010603 | 19 | 350 | 4.8 | 14.5 | 0.00 | 0.00 | 0.00 | 55 | 1015.1 |
| 20260507005603 | 19 | 303 | 4.8 | 19.3 | 0.00 | 0.00 | 0.00 | 53 | 1015.1 |
| 20260507005103 | 20 | 292 | 11.3 | 16.1 | 0.00 | 0.00 | 0.00 | 53 | 1014.9 |
| 20260507004603 | 20 | 270 | 3.2 | 4.8 | 0.00 | 0.00 | 0.00 | 53 | 1014.9 |
| 20260507004103 | 20 | 309 | 3.2 | 9.7 | 0.00 | 0.00 | 0.00 | 51 | 1014.9 |
| 20260507003602 | 20 | 6 | 3.2 | 11.3 | 0.00 | 0.00 | 0.00 | 52 | 1014.9 |
| 20260507003103 | 21 | 303 | 3.2 | 11.3 | 0.00 | 0.00 | 0.00 | 52 | 1014.6 |
| 20260507002603 | 21 | 299 | 4.8 | 9.7 | 0.00 | 0.00 | 0.00 | 53 | 1014.6 |
| 20260507002103 | 21 | 323 | 4.8 | 14.5 | 0.00 | 0.00 | 0.00 | 52 | 1014.6 |
| 20260507001602 | 21 | 330 | 4.8 | 12.9 | 0.00 | 0.00 | 0.00 | 53 | 1014.5 |
| 20260507001103 | 21 | 309 | 8.0 | 14.5 | 0.00 | 0.00 | 0.00 | 52 | 1014.6 |
| 20260506235103 | 21 | 313 | 6.4 | 14.5 | 0.00 | 0.00 | 0.00 | 53 | 1014.5 |
| 20260506234603 | 21 | 324 | 9.7 | 20.9 | 0.00 | 0.00 | 0.00 | 51 | 1014.5 |
| 20260506234103 | 22 | 331 | 8.0 | 16.1 | 0.00 | 0.00 | 0.00 | 53 | 1014.3 |
| 20260506233603 | 22 | 351 | 8.0 | 19.3 | 0.00 | 0.00 | 0.00 | 52 | 1014.2 |
| 20260506233103 | 22 | 307 | 4.8 | 14.5 | 0.00 | 0.00 | 0.00 | 52 | 1014.2 |
| 20260506232603 | 22 | 301 | 3.2 | 12.9 | 0.00 | 0.00 | 0.00 | 54 | 1014.2 |
| 20260506232103 | 22 | 297 | 11.3 | 19.3 | 0.00 | 0.00 | 0.00 | 52 | 1014.3 |
| 20260506231603 | 22 | 338 | 6.4 | 19.3 | 0.00 | 0.00 | 0.00 | 53 | 1014.2 |
| 20260506231102 | 22 | 291 | 6.4 | 16.1 | 0.00 | 0.00 | 0.00 | 53 | 1014.2 |
| 20260506230603 | 22 | 328 | 6.4 | 14.5 | 0.00 | 0.00 | 0.00 | 55 | 1014.2 |
| 20260506225602 | 22 | 341 | 4.8 | 16.1 | 0.00 | 0.00 | 0.00 | 53 | 1014.3 |
| 20260506225103 | 22 | 323 | 4.8 | 20.9 | 0.00 | 0.00 | 0.00 | 54 | 1014.4 |
| 20260506224603 | 22 | 302 | 4.8 | 19.3 | 0.00 | 0.00 | 0.00 | 52 | 1014.3 |
| 20260506224103 | 22 | 326 | 4.8 | 16.1 | 0.00 | 0.00 | 0.00 | 53 | 1014.6 |
| 20260506223602 | 22 | 320 | 8.0 | 16.1 | 0.00 | 0.00 | 0.00 | 54 | 1014.7 |
| 20260506223102 | 22 | 340 | 6.4 | 16.1 | 0.00 | 0.00 | 0.00 | 53 | 1014.8 |
| 20260506222603 | 22 | 331 | 6.4 | 19.3 | 0.00 | 0.00 | 0.00 | 54 | 1014.9 |
| 20260506222103 | 21 | 293 | 8.0 | 19.3 | 0.00 | 0.00 | 0.00 | 53 | 1014.9 |
| 20260506221603 | 21 | 301 | 4.8 | 14.5 | 0.00 | 0.00 | 0.00 | 52 | 1014.9 |
| 20260506221103 | 22 | 319 | 9.7 | 19.3 | 0.00 | 0.00 | 0.00 | 52 | 1015.0 |
| 20260506220603 | 22 | 340 | 9.7 | 20.9 | 0.00 | 0.00 | 0.00 | 52 | 1015.0 |
| 20260506215602 | 22 | 334 | 6.4 | 19.3 | 0.00 | 0.00 | 0.00 | 52 | 1015.2 |
| 20260506215104 | 21 | 343 | 9.7 | 20.9 | 0.00 | 0.00 | 0.00 | 51 | 1015.5 |
| 20260506214102 | 21 | 332 | 8.0 | 19.3 | 0.00 | 0.00 | 0.00 | 50 | 1015.4 |
| 20260506213603 | 22 | 333 | 6.4 | 16.1 | 0.00 | 0.00 | 0.00 | 52 | 1015.2 |
| 20260506213102 | 22 | 308 | 8.0 | 16.1 | 0.00 | 0.00 | 0.00 | 51 | 1015.2 |
| 20260506212603 | 21 | 315 | 6.4 | 19.3 | 0.00 | 0.00 | 0.00 | 52 | 1015.3 |
| 20260506212103 | 22 | 308 | 9.7 | 20.9 | 0.00 | 0.00 | 0.00 | 49 | 1015.3 |
| 20260506211603 | 22 | 338 | 4.8 | 20.9 | 0.00 | 0.00 | 0.00 | 52 | 1015.2 |
| 20260506211102 | 22 | 314 | 8.0 | 19.3 | 0.00 | 0.00 | 0.00 | 50 | 1015.3 |
| 20260506210603 | 22 | 340 | 8.0 | 16.1 | 0.00 | 0.00 | 0.00 | 51 | 1015.0 |
| 20260506205602 | 22 | 12 | 4.8 | 19.3 | 0.00 | 0.00 | 0.00 | 52 | 1015.1 |
| 20260506205103 | 21 | 351 | 4.8 | 19.3 | 0.00 | 0.00 | 0.00 | 54 | 1015.1 |
| 20260506204603 | 21 | 304 | 4.8 | 16.1 | 0.00 | 0.00 | 0.00 | 56 | 1015.5 |
| 20260506204103 | 20 | 291 | 9.7 | 24.1 | 0.00 | 0.00 | 0.00 | 53 | 1015.6 |
| 20260506203102 | 21 | 284 | 14.5 | 25.7 | 0.00 | 0.00 | 0.00 | 48 | 1015.8 |
| 20260506202603 | 21 | 325 | 9.7 | 19.3 | 0.00 | 0.00 | 0.00 | 53 | 1015.6 |
| 20260506202102 | 21 | 293 | 8.0 | 16.1 | 0.00 | 0.00 | 0.00 | 51 | 1015.6 |
| 20260506201602 | 21 | 314 | 4.8 | 11.3 | 0.00 | 0.00 | 0.00 | 53 | 1015.6 |
| 20260506200603 | 21 | 341 | 8.0 | 16.1 | 0.00 | 0.00 | 0.00 | 55 | 1015.4 |
| 20260506195603 | 21 | 307 | 6.4 | 12.9 | 0.00 | 0.00 | 0.00 | 55 | 1015.5 |
| 20260506195103 | 20 | 287 | 4.8 | 11.3 | 0.00 | 0.00 | 0.00 | 56 | 1015.5 |
| 20260506194603 | 20 | 314 | 9.7 | 22.5 | 0.00 | 0.00 | 0.00 | 56 | 1015.8 |
| 20260506194103 | 21 | 290 | 9.7 | 19.3 | 0.00 | 0.00 | 0.00 | 49 | 1015.6 |
| 20260506193603 | 21 | 296 | 4.8 | 9.7 | 0.00 | 0.00 | 0.00 | 55 | 1015.7 |
| 20260506193103 | 21 | 296 | 4.8 | 11.3 | 0.00 | 0.00 | 0.00 | 54 | 1015.7 |
| 20260506192602 | 21 | 289 | 4.8 | 11.3 | 0.00 | 0.00 | 0.00 | 55 | 1015.7 |
| 20260506192102 | 21 | 326 | 4.8 | 12.9 | 0.00 | 0.00 | 0.00 | 53 | 1015.9 |
| 20260506191603 | 21 | 298 | 6.4 | 16.1 | 0.00 | 0.00 | 0.00 | 53 | 1015.9 |
| 20260506191103 | 21 | 287 | 4.8 | 9.7 | 0.00 | 0.00 | 0.00 | 55 | 1015.9 |
| 20260506190602 | 21 | 287 | 4.8 | 11.3 | 0.00 | 0.00 | 0.00 | 56 | 1016.1 |
| 20260506185602 | 21 | 321 | 3.2 | 16.1 | 0.00 | 0.00 | 0.00 | 57 | 1015.9 |
| 20260506185102 | 21 | 330 | 3.2 | 9.7 | 0.00 | 0.00 | 0.00 | 55 | 1016.0 |
| 20260506184603 | 21 | 322 | 4.8 | 11.3 | 0.00 | 0.00 | 0.00 | 54 | 1016.1 |
| 20260506183602 | 20 | 306 | 4.8 | 9.7 | 0.00 | 0.00 | 0.00 | 54 | 1016.2 |
| 20260506183103 | 21 | 342 | 4.8 | 9.7 | 0.00 | 0.00 | 0.00 | 53 | 1016.3 |
| 20260506182102 | 21 | 318 | 3.2 | 8.0 | 0.00 | 0.00 | 0.00 | 55 | 1016.2 |
| 20260506181603 | 21 | 301 | 6.4 | 11.3 | 0.00 | 0.00 | 0.00 | 52 | 1016.3 |
| 20260506175103 | 20 | 60 | 3.2 | 9.7 | 0.00 | 0.00 | 0.00 | 63 | 1016.6 |
| 20260506174602 | 19 | 27 | 1.6 | 4.8 | 0.00 | 0.00 | 0.00 | 61 | 1016.5 |
| 20260506174103 | 18 | 30 | 6.4 | 11.3 | 0.00 | 0.00 | 0.00 | 61 | 1016.6 |
| 20260506173103 | 18 | 47 | 4.8 | 9.7 | 0.00 | 0.00 | 0.00 | 62 | 1016.6 |
| 20260506172603 | 18 | 58 | 6.4 | 11.3 | 0.00 | 0.00 | 0.00 | 61 | 1016.9 |
| 20260506172102 | 17 | 18 | 3.2 | 9.7 | 0.00 | 0.00 | 0.00 | 62 | 1016.9 |
| 20260506171603 | 17 | 86 | 3.2 | 11.3 | 0.00 | 0.00 | 0.00 | 62 | 1016.8 |
| 20260506171102 | 17 | 110 | 4.8 | 11.3 | 0.00 | 0.00 | 0.00 | 60 | 1016.2 |
| 20260506170603 | 17 | 101 | 3.2 | 9.7 | 0.00 | 0.00 | 0.00 | 62 | 1016.0 |
| 20260506170103 | 17 | 90 | 6.4 | 11.3 | 0.00 | 0.00 | 0.00 | 63 | 1016.0 |
| 20260506165103 | 16 | 92 | 9.7 | 16.1 | 0.00 | 0.00 | 0.00 | 63 | 1016.2 |
| 20260506163602 | 16 | 103 | 9.7 | 12.9 | 0.00 | 0.00 | 0.00 | 69 | 1016.3 |
| 20260506163103 | 15 | 96 | 9.7 | 14.5 | 0.00 | 0.00 | 0.00 | 67 | 1016.6 |
| 20260506162603 | 15 | 92 | 11.3 | 14.5 | 0.00 | 0.00 | 0.00 | 67 | 1016.6 |
| 20260506162103 | 15 | 94 | 11.3 | 16.1 | 0.00 | 0.00 | 0.00 | 66 | 1016.7 |
| 20260506161603 | 15 | 91 | 11.3 | 16.1 | 0.00 | 0.00 | 0.00 | 67 | 1016.8 |
| 20260506161104 | 15 | 93 | 9.7 | 14.5 | 0.00 | 0.00 | 0.00 | 68 | 1016.5 |
| 20260506155603 | 14 | 95 | 8.0 | 11.3 | 0.00 | 0.00 | 0.00 | 69 | 1016.3 |
| 20260506155103 | 14 | 96 | 8.0 | 9.7 | 0.00 | 0.00 | 0.00 | 68 | 1016.4 |
| 20260506154603 | 14 | 103 | 8.0 | 11.3 | 0.00 | 0.00 | 0.00 | 69 | 1016.4 |
| 20260506154103 | 14 | 102 | 8.0 | 11.3 | 0.00 | 0.00 | 0.00 | 68 | 1016.4 |
| 20260506153603 | 13 | 86 | 9.7 | 11.3 | 0.00 | 0.00 | 0.00 | 68 | 1016.4 |
| 20260506152603 | 13 | 87 | 8.0 | 9.7 | 0.00 | 0.00 | 0.00 | 69 | 1016.6 |
| 20260506152103 | 13 | 86 | 8.0 | 9.7 | 0.00 | 0.00 | 0.00 | 67 | 1016.6 |
| 20260506151603 | 13 | 93 | 4.8 | 8.0 | 0.00 | 0.00 | 0.00 | 66 | 1016.6 |
| 20260506151103 | 13 | 93 | 8.0 | 9.7 | 0.00 | 0.00 | 0.00 | 66 | 1016.4 |
| 20260506150603 | 13 | 95 | 4.8 | 9.7 | 0.00 | 0.00 | 0.00 | 68 | 1016.3 |
| 20260506145603 | 13 | 115 | 4.8 | 4.8 | 0.00 | 0.00 | 0.00 | 67 | 1016.4 |
| 20260506145102 | 12 | 115 | 4.8 | 4.8 | 0.00 | 0.00 | 0.00 | 67 | 1016.7 |
| 20260506144103 | 12 | 115 | 4.8 | 4.8 | 0.00 | 0.00 | 0.00 | 69 | 1016.7 |
| 20260506143603 | 12 | 115 | 4.8 | 4.8 | 0.00 | 0.00 | 0.00 | 69 | 1016.7 |
| 20260506142603 | 11 | 115 | 4.8 | 8.0 | 0.00 | 0.00 | 0.00 | 68 | 1017.0 |
| 20260506142102 | 11 | 116 | 4.8 | 4.8 | 0.00 | 0.00 | 0.00 | 71 | 1017.0 |
| 20260506141603 | 11 | 116 | 4.8 | 4.8 | 0.00 | 0.00 | 0.00 | 69 | 1017.1 |
| 20260506140602 | 10 | 116 | 3.2 | 4.8 | 0.00 | 0.00 | 0.00 | 73 | 1016.5 |
| 20260506135602 | 10 | 116 | 3.2 | 4.8 | 0.00 | 0.00 | 0.00 | 71 | 1016.7 |
| 20260506135102 | 9 | 116 | 3.2 | 4.8 | 0.00 | 0.00 | 0.00 | 73 | 1016.7 |
| 20260506134602 | 8 | 116 | 3.2 | 4.8 | 0.00 | 0.00 | 0.00 | 73 | 1017.0 |
| 20260506134103 | 8 | 115 | 3.2 | 4.8 | 0.00 | 0.00 | 0.00 | 73 | 1016.9 |
| 20260506133603 | 8 | 116 | 4.8 | 4.8 | 0.00 | 0.00 | 0.00 | 73 | 1016.9 |
| 20260506132603 | 8 | 116 | 3.2 | 4.8 | 0.00 | 0.00 | 0.00 | 70 | 1016.8 |
| 20260506132102 | 7 | 116 | 4.8 | 4.8 | 0.00 | 0.00 | 0.00 | 69 | 1017.0 |
| 20260506131103 | 7 | 116 | 3.2 | 4.8 | 0.00 | 0.00 | 0.00 | 70 | 1016.9 |
| 20260506130603 | 7 | 116 | 4.8 | 4.8 | 0.00 | 0.00 | 0.00 | 69 | 1016.7 |
| 20260506125103 | 7 | 116 | 1.6 | 4.8 | 0.00 | 0.00 | 0.00 | 69 | 1016.7 |
| 20260506124603 | 7 | 116 | 4.8 | 4.8 | 0.00 | 0.00 | 0.00 | 69 | 1016.7 |
| 20260506124102 | 7 | 116 | 3.2 | 4.8 | 0.00 | 0.00 | 0.00 | 70 | 1016.6 |
| 20260506123603 | 6 | 116 | 4.8 | 4.8 | 0.00 | 0.00 | 0.00 | 70 | 1016.8 |
| 20260506123103 | 6 | 116 | 4.8 | 8.0 | 0.00 | 0.00 | 0.00 | 72 | 1016.8 |
| 20260506122603 | 6 | 116 | 3.2 | 4.8 | 0.00 | 0.00 | 0.00 | 72 | 1016.8 |
| 20260506122103 | 6 | 116 | 4.8 | 4.8 | 0.00 | 0.00 | 0.00 | 72 | 1016.7 |
| 20260506121104 | 6 | 116 | 1.6 | 3.2 | 0.00 | 0.00 | 0.00 | 72 | 1016.7 |
| 20260506120603 | 6 | 116 | 1.6 | 3.2 | 0.00 | 0.00 | 0.00 | 72 | 1016.5 |
| 20260506115603 | 6 | 116 | 3.2 | 4.8 | 0.00 | 0.00 | 0.00 | 71 | 1016.4 |
| 20260506115103 | 6 | 116 | 1.6 | 3.2 | 0.00 | 0.00 | 0.00 | 71 | 1016.0 |
| 20260506114103 | 7 | 116 | 1.6 | 3.2 | 0.00 | 0.00 | 0.00 | 69 | 1016.2 |
| 20260506113103 | 7 | 115 | 6.4 | 8.0 | 0.00 | 0.00 | 0.00 | 69 | 1016.2 |
| 20260506112603 | 7 | 115 | 8.0 | 8.0 | 0.00 | 0.00 | 0.00 | 69 | 1016.2 |
| 20260506111103 | 7 | 115 | 8.0 | 8.0 | 0.00 | 0.00 | 0.00 | 71 | 1016.3 |
| 20260506110603 | 7 | 115 | 8.0 | 9.7 | 0.00 | 0.00 | 0.00 | 70 | 1016.5 |
| 20260506105603 | 7 | 117 | 9.7 | 11.3 | 0.00 | 0.00 | 0.00 | 69 | 1016.4 |
| 20260506104603 | 7 | 123 | 4.8 | 8.0 | 0.00 | 0.00 | 0.00 | 71 | 1016.4 |
| 20260506104103 | 7 | 176 | 3.2 | 4.8 | 0.00 | 0.00 | 0.00 | 70 | 1016.4 |
| 20260506103602 | 7 | 176 | 3.2 | 8.0 | 0.00 | 0.00 | 0.00 | 71 | 1016.4 |
| 20260506103104 | 6 | 185 | 6.4 | 8.0 | 0.00 | 0.00 | 0.00 | 72 | 1016.6 |
| 20260506102603 | 6 | 195 | 4.8 | 8.0 | 0.00 | 0.00 | 0.00 | 72 | 1016.4 |
| 20260506102103 | 6 | 195 | 4.8 | 4.8 | 0.00 | 0.00 | 0.00 | 72 | 1016.5 |
| 20260506101603 | 6 | 222 | 3.2 | 4.8 | 0.00 | 0.00 | 0.00 | 74 | 1016.5 |
| 20260506101103 | 6 | 223 | 1.6 | 3.2 | 0.00 | 0.00 | 0.00 | 74 | 1016.4 |
| 20260506100603 | 6 | 223 | 3.2 | 4.8 | 0.00 | 0.00 | 0.00 | 74 | 1016.2 |
| 20260506095602 | 6 | 223 | 0.0 | 0.0 | 0.00 | 0.00 | 0.00 | 75 | 1016.1 |
| 20260506095102 | 6 | 223 | 0.0 | 1.6 | 0.00 | 0.00 | 0.00 | 75 | 1016.1 |
| 20260506094603 | 6 | 224 | 3.2 | 4.8 | 0.00 | 0.00 | 0.00 | 75 | 1016.2 |
| 20260506094103 | 7 | 224 | 3.2 | 4.8 | 0.00 | 0.00 | 0.00 | 72 | 1015.9 |
| 20260506093603 | 7 | 224 | 1.6 | 3.2 | 0.00 | 0.00 | 0.00 | 72 | 1015.9 |
| 20260506093103 | 7 | 223 | 3.2 | 4.8 | 0.00 | 0.00 | 0.00 | 70 | 1015.8 |
| 20260506092603 | 7 | 223 | 1.6 | 3.2 | 0.00 | 0.00 | 0.00 | 69 | 1015.8 |
| 20260506092103 | 7 | 224 | 1.6 | 4.8 | 0.00 | 0.00 | 0.00 | 69 | 1015.8 |
| 20260506091603 | 8 | 223 | 0.0 | 4.8 | 0.00 | 0.00 | 0.00 | 69 | 1015.5 |
| 20260506091102 | 8 | 223 | 0.0 | 0.0 | 0.00 | 0.00 | 0.00 | 68 | 1015.4 |
| 20260506090603 | 9 | 224 | 1.6 | 3.2 | 0.00 | 0.00 | 0.00 | 65 | 1015.3 |
| 20260506090103 | 9 | 224 | 1.6 | 3.2 | 0.00 | 0.00 | 0.00 | 63 | 1015.0 |
| 20260506085603 | 9 | 223 | 1.6 | 3.2 | 0.00 | 0.00 | 0.00 | 63 | 1015.3 |
| 20260506085103 | 9 | 224 | 1.6 | 3.2 | 0.00 | 0.00 | 0.00 | 63 | 1015.4 |
| 20260506084602 | 10 | 224 | 1.6 | 3.2 | 0.00 | 0.00 | 0.00 | 61 | 1015.2 |
| 20260506084103 | 10 | 224 | 3.2 | 3.2 | 0.00 | 0.00 | 0.00 | 62 | 1015.2 |
| 20260506083603 | 10 | 226 | 1.6 | 4.8 | 0.00 | 0.00 | 0.00 | 62 | 1015.2 |
| 20260506083103 | 10 | 228 | 0.0 | 3.2 | 0.00 | 0.00 | 0.00 | 62 | 1015.1 |
| 20260506081603 | 9 | 228 | 1.6 | 4.8 | 0.00 | 0.00 | 0.00 | 64 | 1015.3 |
| 20260506081103 | 8 | 229 | 1.6 | 3.2 | 0.00 | 0.00 | 0.00 | 66 | 1015.3 |
| 20260506080603 | 8 | 229 | 0.0 | 0.0 | 0.00 | 0.00 | 0.00 | 67 | 1015.5 |
| 20260506073103 | 7 | 229 | 4.8 | 4.8 | 0.00 | 0.00 | 0.00 | 77 | 1015.7 |
| 20260506072603 | 7 | 228 | 4.8 | 4.8 | 0.00 | 0.00 | 0.00 | 75 | 1015.6 |
| 20260506072103 | 7 | 247 | 3.2 | 4.8 | 0.00 | 0.00 | 0.00 | 73 | 1015.5 |
| 20260506071103 | 8 | 247 | 1.6 | 3.2 | 0.00 | 0.00 | 0.00 | 72 | 1015.5 |